Find Inmarsat GX5

NORAD ID: 44801 Int'l Des: 2019-080 Owner: INMRL Country: UK operational
HEOCIRCULARGSOGEO

リアルタイム位置

3D地球を読み込み中...

Inmarsat GX5について

説明を読み込み中...

次回通過

Passes for default location (London). Set your location on the main map for personalized predictions.

高度履歴

Loading altitude history...

軌道要素

1 44801U 19080B 26105.23055341 .00000000 00000-0 00000-0 0 9992
2 44801 0.0226 359.0231 0001857 20.2129 278.1659 1.00270098 6156
Epoch: Apr 15, 2026 • Age: 6 hours

現在のステータス

高度 35778.7 km
速度 3.08 km/s
衛星直下点 0.00°N, 11°E
打ち上げ日 Nov 26, 2019
運用期間 6.3 years
タイプ communications

技術仕様

分類 Payload
質量 4007.00 kg
乾燥質量 2200.00 kg
総質量 4007.00 kg
長さ 5.00 m
直径 2.50 m
スパン 38.00 m
形状 Box + 2 Pan
製造者 THALES
バスタイプ Spacebus 4000B2
フェーズステータス In Orbit
所有者/国 INMRL/UK

Most Searched